Simultaneous Nadir Overpasses (SNOs) Predictions

Prediction of SNOs between METOP-A and NOAA-19 Satellite Orbit:

Table of predicted SNOs for the next 14.0 days since TLE Epoch: 7/27/2015
Index Date (METOP-A) Time (METOP-A) Lat,Lon (METOP-A) SZA (METOP-A ) Date (NOAA-19) Time (NOAA-19) Lat,Lon (NOAA-19) SZA (NOAA-19 ) Distance(km) Time Diff (sec)
1 07/28/2015 11:02:54 -75.39,-167.83 123.65 07/28/2015 11:01:42 -75.44,-169.10 123.57 35.81 72
2 07/28/2015 11:53:38 75.18, -1.11 56.16 07/28/2015 11:52:36 75.17, -0.99 56.15 3.77 62
3 07/28/2015 12:44:20 -75.18, 166.21 123.83 07/28/2015 12:43:39 -75.19, 166.21 123.83 0.38 41
4 07/28/2015 13:35:00 75.16, -26.51 56.16 07/28/2015 13:34:39 75.19, -26.56 56.19 3.36 21
5 07/28/2015 14:25:42 -75.16, 140.81 123.84 07/28/2015 14:25:41 -75.16, 140.78 123.84 0.86 1
6 07/28/2015 15:16:22 75.14, -51.91 56.16 07/28/2015 15:16:41 75.16, -51.99 56.18 3.22 19
7 07/28/2015 16:07:04 -75.14, 115.41 123.84 07/28/2015 16:07:43 -75.13, 115.35 123.85 1.97 39
8 07/28/2015 16:57:44 75.12, -77.31 56.16 07/28/2015 16:58:43 75.14, -77.42 56.17 3.44 59
9 07/28/2015 17:48:30 -74.93, 89.47 124.02 07/28/2015 17:49:42 -74.96, 90.35 124.01 25.77 72
10 08/07/2015 23:36:07 75.26,-176.56 58.92 08/07/2015 23:34:54 75.26,-176.67 58.94 3.18 73
11 08/08/2015 00:26:49 -75.22, -9.35 121.11 08/08/2015 00:25:57 -75.21, -9.28 121.11 2.00 52
12 08/08/2015 01:17:28 75.24, 158.04 58.92 08/08/2015 01:16:55 75.24, 157.91 58.93 3.82 33
13 08/08/2015 02:08:11 -75.20, -34.75 121.11 08/08/2015 02:07:59 -75.19, -34.71 121.12 1.63 12
14 08/08/2015 02:58:51 75.17, 132.50 58.88 08/08/2015 02:58:56 75.17, 132.62 58.88 3.46 5
15 08/08/2015 03:49:33 -75.18, -60.15 121.11 08/08/2015 03:50:01 -75.16, -60.13 121.12 1.87 28
16 08/08/2015 04:40:13 75.15, 107.10 58.88 08/08/2015 04:40:58 75.14, 107.19 58.87 2.75 45
17 08/08/2015 05:30:55 -75.16, -85.55 121.10 08/08/2015 05:32:03 -75.13, -85.56 121.13 2.57 68
18 08/08/2015 06:21:44 74.69, 80.49 58.48 08/08/2015 06:22:52 74.74, 82.88 58.46 70.21 68




NCC Satellite Simultaneous Nadir Overpasses (SNOs) Prediction Service
